[[{"header":{"parameterUnit":"m.s-1","parameterCategory":2,"la1":30.2992,"la2":30.254,"lo1":-89.0895,"lo2":-89.0443,"dy":0.0025,"dx":0.0025,"nx":19,"ny":19,"refTime":"2026-03-23T21:00:00:Z","depth":"0","parameterNumber":2,"parameterNumberName":"U-component_of_CURRENTS"},"data":[0,0,0,-0.0591,-0.059,-0.0567,-0.0567,-0.0568,-0.0567,0,0,0,0,0,0,0,0,0,0,0,-0.0599,-0.0599,-0.0591,-0.059,-0.0567,-0.0567,-0.0568,-0.0567,0,0,0,0,0,0,0,0,0,0,0,-0.0599,-0.0599,-0.0598,-0.059,-0.0567,-0.0567,-0.0568,-0.058,0,0,0,0,0,0,0,0,0,0,-0.0599,-0.059,-0.0599,-0.0598,-0.0589,-0.0567,-0.0567,-0.058,-0.0579,-0.0583,0,-0.057,0,-0.0564,-0.0567,-0.0567,0,0,0,-0.06,-0.059,-0.0591,-0.0598,-0.0589,-0.0567,-0.058,-0.0579,-0.0578,-0.0581,-0.057,-0.057,-0.0564,-0.0567,-0.0567,-0.0542,-0.0541,0,0,-0.0601,-0.0591,-0.0592,-0.059,-0.0572,-0.0581,-0.058,-0.0578,-0.0569,-0.057,-0.057,-0.0564,-0.0567,-0.0567,-0.0542,-0.0542,0,0,0,-0.0598,-0.0592,-0.0592,-0.059,-0.0581,-0.058,-0.0578,-0.0569,-0.057,-0.057,-0.0564,-0.0567,-0.0567,-0.0542,-0.0542,-0.0344,0,0,0,-0.0599,-0.0589,-0.0593,-0.0586,-0.0581,-0.0568,-0.0569,-0.0571,-0.057,-0.0564,-0.0567,-0.0567,-0.0542,-0.0542,-0.0349,-0.0154,0,0,0,-0.0602,-0.059,-0.0585,-0.0586,-0.0572,-0.0568,-0.0569,-0.0571,-0.0567,-0.0567,-0.0567,-0.0543,-0.0542,-0.0355,-0.0168,0.0172,0,0,0,-0.0597,-0.0577,-0.0585,-0.0571,-0.0572,-0.0568,-0.0569,-0.0575,-0.0577,-0.0567,-0.0542,-0.0542,-0.0356,-0.0176,0.0159,0.0332,0.0404,0,0,-0.0573,-0.0574,-0.0571,-0.0578,-0.0577,-0.0573,-0.0536,-0.0545,-0.0566,-0.0547,-0.0547,-0.0347,-0.0169,0.0169,0.0365,0.0437,0,0,0,-0.0566,-0.057,-0.0569,-0.0572,-0.0567,-0.0481,-0.0535,-0.0493,-0.0427,-0.0561,-0.0392,-0.0284,-0.0075,-0.0002,0.0054,0.013,-0.0539,-0.0539,-0.0539,-0.0541,-0.0558,-0.0535,-0.0544,-0.0511,-0.0454,-0.0324,-0.0276,-0.0393,-0.0323,-0.016,0.019,0.0257,0.0304,0.0374,-0.0262,-0.0261,-0.0261,-0.026,-0.053,-0.0494,-0.0486,-0.0466,-0.0371,-0.0316,-0.0115,-0.009,0.0211,-0.0016,0.0176,0.0152,0.0379,0.043,-0.0248,-0.025,-0.0252,-0.0253,-0.0254,-0.0545,-0.0491,-0.0506,-0.0394,-0.0228,-0.0118,0.0231,0.0357,0.0468,0.068,0.0839,0.0835,0.0935,0.0782,0.0784,0.0787,0.0789,0.079,0.0792,-0.048,-0.0477,-0.0362,-0.025,-0.0103,0.0157,0.0502,0.0746,0.1101,0.1172,0.1173,0.1067,0.0513,0.0534,0.0828,0.0821,0.0817,0.0813,0.0811,-0.0331,-0.0328,-0.0171,-0.0041,0.0291,0.0594,0.0812,0.1346,0.1664,0.1909,0.1848,0.1463,0.1481,0.143,0.1473,0.1995,0.1995,0.1995,0.1995,-0.015,-0.0165,0.0112,0.0336,0.0621,0.0838,0.1335,0.1715,0.2176,0.2388,0.2376,0.2089,0.2038,0.2067,0.2002,0.2045,0.2702,0.2702,0.2703,0.0103,0.0098,0.0358,0.0474,0.0778,0.1078,0.1524,0.1904,0.2482,0.273,0.2473,0.2444,0.1994,0.1907,0.1898,0.1801,0.1848,0,0]},{"header":{"parameterUnit":"m.s-1","parameterCategory":2,"la1":30.2992,"la2":30.254,"lo1":-89.0895,"lo2":-89.0443,"dy":0.0025,"dx":0.0025,"nx":19,"ny":19,"refTime":"2026-03-23T21:00:00:Z","depth":"0","parameterNumber":3,"parameterNumberName":"V-component_of_CURRENTS"},"data":[0,0,0,0.0042,0.0042,0.0044,0.0044,0.0064,0.0064,0,0,0,0,0,0,0,0,0,0,0,0.0054,0.0054,0.0042,0.0042,0.0044,0.0044,0.0064,0.0064,0,0,0,0,0,0,0,0,0,0,0,0.0054,0.0054,0.0054,0.0042,0.0044,0.0044,0.0064,0.0061,0,0,0,0,0,0,0,0,0,0,0.0058,0.0042,0.0054,0.0054,0.0041,0.0044,0.0044,0.0061,0.0061,0.0064,0,0.0064,0,0.0053,0.0065,0.0065,0,0,0,0.0055,0.0042,0.0057,0.0054,0.0041,0.0043,0.0046,0.0061,0.0061,0.0064,0.0064,0.0065,0.0054,0.0065,0.0065,-0.0044,-0.0045,0,0,0.0054,0.004,0.0057,0.0058,0.0042,0.0046,0.0046,0.0061,0.0053,0.0065,0.0065,0.0054,0.0065,0.0065,-0.0043,-0.0044,0,0,0,0.0045,0.0039,0.0055,0.0057,0.005,0.0046,0.0046,0.0052,0.0062,0.0065,0.0054,0.0065,0.0065,-0.0041,-0.0043,0.0126,0,0,0,0.0046,0.0033,0.0055,0.0044,0.005,0.0042,0.0037,0.0061,0.0062,0.0054,0.0065,0.0065,-0.004,-0.0043,0.0124,0.0264,0,0,0,0.0054,0.0033,0.0038,0.0043,0.0039,0.0042,0.0052,0.0062,0.0055,0.0065,0.0065,-0.0039,-0.0042,0.0123,0.0257,0.0495,0,0,0,0.0034,-0.0052,0.0037,-0.0067,0.0039,-0.005,0.0052,-0.0008,-0.0018,0.0065,-0.004,-0.0043,0.0123,0.0253,0.0488,0.0718,0.077,0,0,-0.0106,-0.0069,-0.0136,-0.0058,-0.0139,-0.0049,-0.0077,-0.003,-0.0055,-0.0038,-0.004,0.0125,0.0257,0.0494,0.0544,0.0604,0,0,0,-0.0203,-0.0222,-0.0248,-0.0252,-0.0268,-0.0115,-0.0121,-0.006,0.0004,-0.0074,0.0016,0.0092,0.024,0.0357,0.04,0.0409,-0.0057,-0.0057,-0.0056,-0.0378,-0.0351,-0.0384,-0.0313,-0.0307,-0.0196,-0.0064,0.0025,-0.0052,-0.0003,0.0148,0.0331,0.0443,0.0482,0.0482,0.0014,0.0015,0.0015,0.0015,-0.0492,-0.0443,-0.0348,-0.0351,-0.0163,-0.0118,0.0092,0.0142,0.0366,0.0212,0.0347,0.0421,0.0543,0.0523,0.0025,0.0023,0.0022,0.0021,0.002,-0.054,-0.0468,-0.0453,-0.0291,-0.0088,0.0066,0.0389,0.047,0.0544,0.0684,0.0855,0.0854,0.0929,0.0754,0.0755,0.0757,0.0758,0.0759,0.076,-0.0505,-0.0469,-0.034,-0.0177,0.0009,0.0282,0.0591,0.0804,0.1064,0.1099,0.11,0.0971,0.0559,0.0636,0.0785,0.0781,0.0778,0.0775,0.0774,-0.0398,-0.0372,-0.0199,-0.0033,0.0376,0.072,0.0904,0.1381,0.1604,0.1799,0.1618,0.1349,0.1365,0.1325,0.1416,0.1761,0.1761,0.1761,0.1761,-0.0247,-0.0251,0.007,0.0347,0.0691,0.0969,0.1505,0.1873,0.2102,0.2156,0.2022,0.1841,0.18,0.1825,0.1774,0.1865,0.2316,0.2316,0.2317,-0.0017,0.0007,0.03,0.0491,0.0874,0.125,0.1754,0.2217,0.2425,0.2326,0.2,0.1977,0.1674,0.161,0.16,0.1529,0.1657,0,0]}],[{"header":{"parameterUnit":"m.s-1","parameterCategory":2,"la1":30.2992,"la2":30.254,"lo1":-89.0895,"lo2":-89.0443,"dy":0.0025,"dx":0.0025,"nx":19,"ny":19,"refTime":"2026-03-23T21:00:00:Z","depth":"2","parameterNumber":2,"parameterNumberName":"U-component_of_CURRENTS"},"data":[0,0,0,-0.0964,-0.0965,-0.0991,-0.0991,-0.1009,-0.1009,0,0,0,0,0,0,0,0,0,0,0,-0.0947,-0.0947,-0.0964,-0.0965,-0.0991,-0.0991,-0.1009,-0.1009,0,0,0,0,0,0,0,0,0,0,0,-0.0947,-0.0947,-0.0947,-0.0965,-0.0991,-0.0991,-0.1009,-0.0993,0,0,0,0,0,0,0,0,0,0,-0.0969,-0.0958,-0.0947,-0.0947,-0.0965,-0.0991,-0.0991,-0.0992,-0.0994,-0.0993,0,-0.0992,0,-0.1005,-0.101,-0.101,0,0,0,-0.0964,-0.0956,-0.0963,-0.0947,-0.0966,-0.0991,-0.0979,-0.0993,-0.0995,-0.0995,-0.0993,-0.0994,-0.1005,-0.101,-0.101,-0.1041,-0.1042,0,0,-0.0962,-0.0953,-0.0962,-0.0964,-0.0966,-0.0978,-0.098,-0.0994,-0.0993,-0.0993,-0.0994,-0.1006,-0.101,-0.101,-0.1041,-0.1042,0,0,0,-0.0959,-0.0952,-0.0959,-0.0963,-0.0971,-0.0979,-0.0981,-0.0993,-0.0995,-0.0995,-0.1006,-0.101,-0.1011,-0.1041,-0.1041,-0.106,0,0,0,-0.0958,-0.0951,-0.0958,-0.0953,-0.0971,-0.0986,-0.0979,-0.0993,-0.0996,-0.1006,-0.101,-0.1011,-0.1041,-0.1041,-0.1059,-0.1003,0,0,0,-0.0947,-0.095,-0.095,-0.0953,-0.0966,-0.0986,-0.0989,-0.0994,-0.1003,-0.101,-0.1011,-0.1041,-0.1041,-0.1058,-0.1003,-0.0931,0,0,0,-0.094,-0.0954,-0.095,-0.0972,-0.0966,-0.1005,-0.0989,-0.1013,-0.1023,-0.101,-0.1041,-0.1041,-0.1058,-0.1004,-0.0932,-0.0793,-0.0775,0,0,-0.0959,-0.0955,-0.0971,-0.0969,-0.1015,-0.1001,-0.1051,-0.1051,-0.1029,-0.1034,-0.1035,-0.1059,-0.1003,-0.0931,-0.0826,-0.0806,0,0,0,-0.0979,-0.0987,-0.1,-0.1023,-0.1046,-0.1067,-0.1077,-0.1065,-0.1056,-0.1037,-0.1066,-0.1028,-0.0982,-0.0902,-0.0888,-0.1044,-0.1044,-0.1044,-0.1044,-0.0986,-0.1009,-0.1031,-0.106,-0.1086,-0.112,-0.1114,-0.1098,-0.1094,-0.1083,-0.1052,-0.1012,-0.0932,-0.0918,-0.1094,-0.1094,-0.1094,-0.1094,-0.1094,-0.0998,-0.0994,-0.1036,-0.1064,-0.1099,-0.1138,-0.1138,-0.113,-0.1046,-0.1065,-0.1021,-0.0936,-0.0902,-0.1096,-0.1096,-0.1096,-0.1095,-0.1095,-0.1095,-0.0979,-0.0971,-0.0999,-0.1022,-0.1071,-0.1116,-0.108,-0.1063,-0.1021,-0.0978,-0.0834,-0.0832,-0.0963,-0.0945,-0.0945,-0.0944,-0.0944,-0.0943,-0.0943,-0.0915,-0.0942,-0.0924,-0.0964,-0.0985,-0.1011,-0.0992,-0.0937,-0.0824,-0.0782,-0.0782,-0.0959,-0.0964,-0.0952,-0.0935,-0.0936,-0.0937,-0.0938,-0.0939,-0.0846,-0.0845,-0.0815,-0.0822,-0.0863,-0.0824,-0.0847,-0.0675,-0.06,-0.0515,-0.0668,-0.0677,-0.0628,-0.064,-0.0619,-0.0516,-0.0516,-0.0516,-0.0516,-0.0771,-0.0774,-0.0703,-0.069,-0.0705,-0.0732,-0.0513,-0.0389,-0.0342,-0.0336,-0.0345,-0.0389,-0.0409,-0.0352,-0.037,-0.0345,-0.0171,-0.0171,-0.017,-0.0697,-0.0685,-0.061,-0.0603,-0.0633,-0.0595,-0.0329,-0.0029,0.0013,-0.0163,-0.0349,-0.048,-0.0572,-0.0593,-0.0528,-0.0549,-0.0518,0,0]},{"header":{"parameterUnit":"m.s-1","parameterCategory":2,"la1":30.2992,"la2":30.254,"lo1":-89.0895,"lo2":-89.0443,"dy":0.0025,"dx":0.0025,"nx":19,"ny":19,"refTime":"2026-03-23T21:00:00:Z","depth":"2","parameterNumber":3,"parameterNumberName":"V-component_of_CURRENTS"},"data":[0,0,0,-0.0421,-0.042,-0.0367,-0.0367,-0.0277,-0.0276,0,0,0,0,0,0,0,0,0,0,0,-0.0442,-0.0442,-0.0421,-0.042,-0.0367,-0.0366,-0.0277,-0.0276,0,0,0,0,0,0,0,0,0,0,0,-0.0442,-0.0442,-0.0442,-0.042,-0.0367,-0.0366,-0.0277,-0.0322,0,0,0,0,0,0,0,0,0,0,-0.0376,-0.04,-0.0442,-0.0442,-0.0419,-0.0367,-0.0366,-0.0324,-0.0319,-0.0296,0,-0.0291,0,-0.028,-0.027,-0.0269,0,0,0,-0.0417,-0.0405,-0.0389,-0.0442,-0.0419,-0.0367,-0.039,-0.0322,-0.0316,-0.0289,-0.0289,-0.0286,-0.0278,-0.0269,-0.0269,-0.0194,-0.0194,0,0,-0.042,-0.0431,-0.0394,-0.0386,-0.0408,-0.0392,-0.0388,-0.0318,-0.0313,-0.0289,-0.0284,-0.0277,-0.0269,-0.0268,-0.0195,-0.0194,0,0,0,-0.043,-0.0433,-0.042,-0.039,-0.0381,-0.039,-0.0386,-0.0316,-0.0312,-0.0283,-0.0276,-0.0268,-0.0267,-0.0195,-0.0195,-0.0326,0,0,0,-0.0432,-0.0439,-0.0421,-0.0427,-0.0383,-0.0351,-0.0386,-0.0317,-0.0309,-0.0276,-0.0268,-0.0266,-0.0195,-0.0195,-0.0323,-0.029,0,0,0,-0.0444,-0.044,-0.0435,-0.0427,-0.0405,-0.0352,-0.0343,-0.0315,-0.0304,-0.0269,-0.0266,-0.0195,-0.0195,-0.032,-0.0287,-0.0228,0,0,0,-0.0455,-0.0453,-0.0435,-0.0429,-0.0406,-0.0377,-0.0344,-0.0313,-0.0285,-0.0268,-0.0195,-0.0195,-0.0319,-0.0285,-0.0228,-0.0191,-0.019,0,0,-0.0461,-0.0454,-0.045,-0.0433,-0.0432,-0.0384,-0.0396,-0.0345,-0.0272,-0.0216,-0.0214,-0.0324,-0.0287,-0.0228,-0.0176,-0.0175,0,0,0,-0.0458,-0.0462,-0.0452,-0.045,-0.042,-0.0426,-0.0381,-0.0358,-0.0316,-0.0254,-0.0281,-0.025,-0.0211,-0.0187,-0.0187,-0.0193,-0.0193,-0.0193,-0.0193,-0.0487,-0.0483,-0.0489,-0.0489,-0.0478,-0.0457,-0.0441,-0.0395,-0.0355,-0.035,-0.0331,-0.0326,-0.0308,-0.0305,-0.0345,-0.0346,-0.0346,-0.0347,-0.0347,-0.0513,-0.0523,-0.0531,-0.0541,-0.055,-0.0561,-0.0513,-0.0494,-0.0407,-0.0395,-0.0353,-0.0293,-0.0312,-0.0356,-0.0355,-0.0353,-0.0352,-0.0352,-0.0351,-0.0535,-0.0544,-0.0554,-0.0586,-0.0617,-0.0613,-0.0552,-0.0507,-0.045,-0.0423,-0.0306,-0.0303,-0.0354,-0.0398,-0.0398,-0.0397,-0.0397,-0.0397,-0.0397,-0.0557,-0.0568,-0.0594,-0.0621,-0.0644,-0.0622,-0.0534,-0.0457,-0.0371,-0.0348,-0.0348,-0.0339,-0.0338,-0.035,-0.0391,-0.0392,-0.0393,-0.0394,-0.0394,-0.0599,-0.0589,-0.0622,-0.0644,-0.0654,-0.0574,-0.0493,-0.0328,-0.0251,-0.021,-0.0293,-0.0297,-0.0211,-0.021,-0.0215,-0.0218,-0.0218,-0.0218,-0.0218,-0.0624,-0.0621,-0.0651,-0.0666,-0.064,-0.0552,-0.0338,-0.0231,-0.0194,-0.0219,-0.022,-0.0269,-0.0275,-0.0193,-0.0193,-0.0198,-0.0196,-0.0196,-0.0196,-0.0665,-0.0657,-0.0682,-0.0672,-0.0649,-0.0486,-0.0262,-0.009,-0.0116,-0.0199,-0.0252,-0.021,-0.0285,-0.0294,-0.0168,-0.0168,-0.0175,0,0]}],[{"header":{"parameterUnit":"m.s-1","parameterCategory":2,"la1":30.2992,"la2":30.254,"lo1":-89.0895,"lo2":-89.0443,"dy":0.0025,"dx":0.0025,"nx":19,"ny":19,"refTime":"2026-03-23T21:00:00:Z","depth":"4","parameterNumber":2,"parameterNumberName":"U-component_of_CURRENTS"},"data":[0,0,0,-0.0784,-0.0785,-0.0853,-0.0853,-0.0891,-0.0891,0,0,0,0,0,0,0,0,0,0,0,-0.0757,-0.0758,-0.0784,-0.0785,-0.0853,-0.0853,-0.0891,-0.0891,0,0,0,0,0,0,0,0,0,0,0,-0.0757,-0.0757,-0.0758,-0.0786,-0.0853,-0.0853,-0.0891,-0.0852,0,0,0,0,0,0,0,0,0,0,-0.0792,-0.0778,-0.0757,-0.0758,-0.0786,-0.0853,-0.0853,-0.085,-0.0854,-0.0846,0,-0.0858,0,-0.0876,-0.0892,-0.0892,0,0,0,-0.0785,-0.0775,-0.0791,-0.0758,-0.0787,-0.0853,-0.0822,-0.0853,-0.0857,-0.0851,-0.0859,-0.0861,-0.0877,-0.0892,-0.0893,-0.0908,-0.0908,0,0,-0.0781,-0.0771,-0.0788,-0.0793,-0.0805,-0.082,-0.0824,-0.0856,-0.0861,-0.0859,-0.0862,-0.0877,-0.0893,-0.0893,-0.0908,-0.0908,0,0,0,-0.0771,-0.0769,-0.0785,-0.0791,-0.0808,-0.0822,-0.0827,-0.0859,-0.0864,-0.0862,-0.0878,-0.0893,-0.0893,-0.0908,-0.0908,-0.0894,0,0,0,-0.0768,-0.0763,-0.0783,-0.0778,-0.0808,-0.0843,-0.083,-0.0862,-0.0866,-0.0878,-0.0893,-0.0893,-0.0908,-0.0908,-0.0894,-0.0878,0,0,0,-0.0754,-0.0762,-0.0769,-0.0777,-0.0807,-0.0843,-0.085,-0.0864,-0.0875,-0.0892,-0.0893,-0.0908,-0.0908,-0.0894,-0.0879,-0.0833,0,0,0,-0.0742,-0.0757,-0.0769,-0.0792,-0.0807,-0.0846,-0.085,-0.0884,-0.0901,-0.0893,-0.0908,-0.0908,-0.0894,-0.088,-0.0834,-0.071,0,0,0,-0.0753,-0.0758,-0.0771,-0.0784,-0.0809,-0.0837,-0.0858,-0.0882,-0.0895,-0.0894,-0.0895,-0.0894,-0.0879,-0.0833,-0.0713,0,0,0,0,-0.077,-0.077,-0.0784,-0.0801,-0.0835,-0.0842,-0.0877,-0.0888,-0.0899,-0.0905,-0.0898,-0.0889,-0.0861,-0.0793,-0.0908,-0.0908,-0.0908,-0.0908,-0.0908,-0.0751,-0.0768,-0.078,-0.0796,-0.0818,-0.085,-0.0856,-0.087,-0.0897,-0.0901,-0.0881,-0.0842,-0.0772,-0.0891,-0.0891,-0.0891,-0.0891,-0.0891,-0.0891,-0.0737,-0.0735,-0.0754,-0.0771,-0.0787,-0.0806,-0.0829,-0.0845,-0.084,-0.0875,-0.0848,-0.0788,-0.0889,-0.089,-0.089,-0.089,-0.089,-0.089,-0.089,-0.0709,-0.0708,-0.0727,-0.0734,-0.0747,-0.0776,-0.0753,-0.0791,-0.0813,-0.0797,-0.0706,-0.0817,-0.0811,-0.0782,-0.0782,-0.0782,-0.0782,-0.0781,-0.0781,-0.0667,-0.0684,-0.0671,-0.0691,-0.0692,-0.07,-0.0717,-0.0697,-0.0723,-0.0665,-0.0787,-0.0804,-0.0808,-0.0805,-0.0777,-0.0778,-0.0778,-0.0779,-0.0779,-0.0617,-0.0628,-0.0597,-0.0592,-0.0582,-0.0583,-0.0624,-0.0558,-0.0514,-0.047,-0.058,-0.0591,-0.0575,-0.0583,-0.0572,-0.0475,-0.0473,-0.0471,0,-0.0574,-0.0578,-0.0511,-0.047,-0.0436,-0.0493,-0.0402,-0.0396,-0.0412,-0.0398,-0.0523,-0.0651,-0.0657,-0.0645,-0.065,-0.0638,0,0,0,-0.0525,-0.0509,-0.0437,-0.0399,-0.0356,-0.0338,-0.0372,-0.0325,-0.0433,-0.0341,-0.0427,-0.0439,-0.0643,-0.0765,-0.0766,-0.077,-0.0764,0,0]},{"header":{"parameterUnit":"m.s-1","parameterCategory":2,"la1":30.2992,"la2":30.254,"lo1":-89.0895,"lo2":-89.0443,"dy":0.0025,"dx":0.0025,"nx":19,"ny":19,"refTime":"2026-03-23T21:00:00:Z","depth":"4","parameterNumber":3,"parameterNumberName":"V-component_of_CURRENTS"},"data":[0,0,0,-0.0306,-0.0305,-0.0283,-0.0282,-0.0204,-0.0203,0,0,0,0,0,0,0,0,0,0,0,-0.0317,-0.0317,-0.0306,-0.0305,-0.0283,-0.0282,-0.0204,-0.0203,0,0,0,0,0,0,0,0,0,0,0,-0.0317,-0.0317,-0.0317,-0.0305,-0.0283,-0.0282,-0.0204,-0.0233,0,0,0,0,0,0,0,0,0,0,-0.0261,-0.028,-0.0317,-0.0317,-0.0305,-0.0283,-0.0282,-0.0235,-0.0231,-0.02,0,-0.0202,0,-0.0198,-0.0197,-0.0196,0,0,0,-0.0303,-0.0284,-0.0276,-0.0317,-0.0305,-0.0283,-0.0292,-0.0233,-0.0229,-0.0195,-0.0201,-0.0198,-0.0197,-0.0196,-0.0196,-0.0074,-0.0074,0,0,-0.0304,-0.0311,-0.0279,-0.0274,-0.0304,-0.0293,-0.0292,-0.0231,-0.0228,-0.0201,-0.0196,-0.0196,-0.0195,-0.0195,-0.0075,-0.0074,0,0,0,-0.031,-0.0312,-0.0307,-0.0277,-0.0275,-0.0292,-0.0291,-0.0231,-0.0229,-0.0196,-0.0195,-0.0195,-0.0194,-0.0076,-0.0075,-0.0167,0,0,0,-0.031,-0.0315,-0.0307,-0.031,-0.0277,-0.0259,-0.0292,-0.0234,-0.0227,-0.0195,-0.0195,-0.0193,-0.0076,-0.0075,-0.0166,-0.0207,0,0,0,-0.0317,-0.0315,-0.0314,-0.0311,-0.0302,-0.0261,-0.0256,-0.0232,-0.0226,-0.0196,-0.0193,-0.0077,-0.0075,-0.0165,-0.0205,-0.0206,0,0,0,-0.0322,-0.0299,-0.0315,-0.0285,-0.0302,-0.0254,-0.0256,-0.0222,-0.0196,-0.0194,-0.0076,-0.0075,-0.0165,-0.0203,-0.0205,-0.0173,0,0,0,-0.0289,-0.0295,-0.0275,-0.0288,-0.025,-0.0257,-0.023,-0.0206,-0.016,-0.0094,-0.0092,-0.0166,-0.0205,-0.0206,-0.0083,0,0,0,0,-0.0261,-0.0252,-0.0238,-0.0228,-0.0205,-0.0225,-0.0196,-0.0193,-0.0161,-0.0138,-0.0109,-0.0129,-0.0128,-0.0102,-0.0068,-0.0068,-0.0068,-0.0068,-0.0068,-0.0227,-0.0222,-0.0209,-0.0209,-0.0191,-0.0192,-0.0207,-0.019,-0.0147,-0.0144,-0.0163,-0.0169,-0.014,-0.0112,-0.0112,-0.0113,-0.0113,-0.0113,-0.0113,-0.0208,-0.0225,-0.0226,-0.0218,-0.024,-0.0231,-0.0236,-0.0237,-0.0229,-0.0192,-0.0187,-0.0149,-0.0121,-0.0119,-0.0118,-0.0117,-0.0117,-0.0116,-0.0116,-0.0222,-0.0241,-0.0241,-0.0267,-0.029,-0.0293,-0.0318,-0.0312,-0.0293,-0.0305,-0.0224,-0.021,-0.025,-0.0285,-0.0285,-0.0285,-0.0285,-0.0285,-0.0286,-0.0268,-0.027,-0.03,-0.0321,-0.0344,-0.0366,-0.0368,-0.0364,-0.0339,-0.0306,-0.0311,-0.0226,-0.022,-0.0255,-0.0288,-0.0288,-0.0288,-0.0287,-0.0287,-0.0325,-0.0324,-0.0359,-0.0384,-0.0419,-0.0418,-0.0414,-0.0368,-0.036,-0.0334,-0.0292,-0.0291,-0.0249,-0.0243,-0.0277,-0.0319,-0.0318,-0.0318,0,-0.0373,-0.0373,-0.0416,-0.0447,-0.0464,-0.0449,-0.0414,-0.0389,-0.0351,-0.0342,-0.0377,-0.0333,-0.033,-0.0285,-0.0278,-0.032,0,0,0,-0.0433,-0.0427,-0.0467,-0.0474,-0.0481,-0.0429,-0.0401,-0.0378,-0.0351,-0.032,-0.0311,-0.0313,-0.0309,-0.0297,-0.023,-0.0223,-0.0275,0,0]}]]